| time (UTC) | temp F | wind direction | speed MPH | gust MPH | rain 1hr in | rain 24hr in | rain mn in | humidity % | barometer mb |
| 20260502233438 | 53 | 353 | 1.0 | 2.0 | 0.00 | 0.53 | 0.53 | 95 | 1011.0 |
| 20260502232937 | 53 | 17 | 1.0 | 2.0 | 0.00 | 0.53 | 0.53 | 95 | 1010.9 |
| 20260502232439 | 53 | 25 | 1.0 | 2.0 | 0.00 | 0.53 | 0.53 | 95 | 1010.9 |
| 20260502231941 | 53 | 0 | 1.0 | 2.0 | 0.00 | 0.53 | 0.53 | 95 | 1010.9 |
| 20260502231423 | 53 | 24 | 1.0 | 2.0 | 0.00 | 0.53 | 0.53 | 95 | 1010.9 |
| 20260502230924 | 53 | 348 | 1.0 | 2.0 | 0.00 | 0.53 | 0.53 | 95 | 1010.9 |
| 20260502230423 | 53 | 284 | 1.0 | 2.0 | 0.00 | 0.53 | 0.53 | 95 | 1010.9 |
| 20260502225923 | 53 | 25 | 1.0 | 2.0 | 0.00 | 0.53 | 0.53 | 95 | 1010.9 |
| 20260502225423 | 53 | 355 | 1.0 | 1.0 | 0.00 | 0.53 | 0.53 | 95 | 1010.9 |
| 20260502224924 | 53 | 343 | 0.0 | 1.0 | 0.00 | 0.53 | 0.53 | 95 | 1010.9 |
| 20260502224423 | 53 | 0 | 0.0 | 1.0 | 0.00 | 0.53 | 0.53 | 94 | 1010.8 |
| 20260502223923 | 53 | 346 | 0.0 | 1.0 | 0.00 | 0.53 | 0.53 | 94 | 1010.8 |
| 20260502223423 | 53 | 0 | 1.0 | 1.0 | 0.00 | 0.53 | 0.53 | 94 | 1010.8 |
| 20260502222907 | 53 | 323 | 1.0 | 2.0 | 0.00 | 0.53 | 0.53 | 93 | 1010.8 |
| 20260502222850 | 53 | 344 | 1.0 | 2.0 | 0.00 | 0.53 | 0.53 | 93 | 1010.7 |
| 20260502222513 | 53 | 344 | 1.0 | 2.0 | 0.00 | 0.53 | 0.53 | 93 | 1010.7 |
| 20260502221907 | 53 | 21 | 1.0 | 3.0 | 0.00 | 0.53 | 0.53 | 92 | 1010.7 |
| 20260502221411 | 53 | 106 | 2.0 | 3.0 | 0.00 | 0.53 | 0.53 | 92 | 1010.7 |
| 20260502220910 | 53 | 64 | 1.0 | 3.0 | 0.00 | 0.53 | 0.53 | 93 | 1010.6 |
| 20260502220640 | 53 | 347 | 1.0 | 2.0 | 0.00 | 0.53 | 0.53 | 93 | 1010.6 |
| 20260502220515 | 53 | 347 | 1.0 | 2.0 | 0.00 | 0.53 | 0.53 | 93 | 1010.6 |
| 20260502215911 | 53 | 353 | 1.0 | 2.0 | 0.00 | 0.53 | 0.53 | 95 | 1010.7 |
| 20260502215412 | 53 | 16 | 1.0 | 4.0 | 0.01 | 0.53 | 0.53 | 94 | 1010.5 |
| 20260502214910 | 53 | 79 | 2.0 | 4.0 | 0.01 | 0.53 | 0.53 | 94 | 1010.5 |
| 20260502214408 | 53 | 4 | 2.0 | 3.0 | 0.01 | 0.53 | 0.53 | 94 | 1010.6 |
| 20260502213908 | 53 | 8 | 2.0 | 3.0 | 0.01 | 0.53 | 0.53 | 93 | 1010.6 |
| 20260502213408 | 53 | 83 | 2.0 | 3.0 | 0.01 | 0.53 | 0.53 | 93 | 1010.6 |
| 20260502212908 | 53 | 145 | 2.0 | 3.0 | 0.02 | 0.53 | 0.53 | 94 | 1010.7 |
| 20260502212408 | 53 | 70 | 2.0 | 6.0 | 0.02 | 0.53 | 0.53 | 93 | 1010.7 |
| 20260502211902 | 53 | 50 | 2.0 | 6.0 | 0.02 | 0.53 | 0.53 | 93 | 1010.6 |
| 20260502211358 | 53 | 122 | 2.0 | 5.0 | 0.02 | 0.53 | 0.53 | 93 | 1010.7 |
| 20260502211119 | 53 | 81 | 1.0 | 3.0 | 0.02 | 0.53 | 0.53 | 94 | 1010.6 |
| 20260502211003 | 53 | 81 | 1.0 | 3.0 | 0.02 | 0.53 | 0.53 | 94 | 1010.6 |
| 20260502210358 | 53 | 53 | 2.0 | 3.0 | 0.02 | 0.53 | 0.53 | 94 | 1010.6 |
| 20260502205859 | 53 | 36 | 1.0 | 2.0 | 0.01 | 0.53 | 0.53 | 94 | 1010.7 |
| 20260502205358 | 53 | 42 | 1.0 | 3.0 | 0.01 | 0.52 | 0.52 | 94 | 1010.6 |
| 20260502204859 | 53 | 21 | 2.0 | 5.0 | 0.01 | 0.52 | 0.52 | 94 | 1010.7 |
| 20260502204604 | 53 | 32 | 2.0 | 5.0 | 0.01 | 0.52 | 0.52 | 94 | 1010.6 |
| 20260502204448 | 53 | 32 | 2.0 | 5.0 | 0.01 | 0.52 | 0.52 | 94 | 1010.6 |
| 20260502203840 | 53 | 6 | 2.0 | 4.0 | 0.01 | 0.52 | 0.52 | 94 | 1010.7 |
| 20260502203341 | 53 | 80 | 2.0 | 3.0 | 0.01 | 0.52 | 0.52 | 93 | 1010.7 |
| 20260502203333 | 53 | 119 | 2.0 | 3.0 | 0.01 | 0.52 | 0.52 | 93 | 1010.7 |
| 20260502202945 | 53 | 119 | 2.0 | 3.0 | 0.01 | 0.52 | 0.52 | 93 | 1010.7 |
| 20260502202603 | 53 | 141 | 2.0 | 3.0 | 0.01 | 0.52 | 0.52 | 93 | 1010.6 |
| 20260502202446 | 53 | 141 | 2.0 | 3.0 | 0.01 | 0.52 | 0.52 | 93 | 1010.6 |
| 20260502201841 | 53 | 53 | 2.0 | 3.0 | 0.01 | 0.52 | 0.52 | 93 | 1010.6 |
| 20260502201610 | 53 | 248 | 1.0 | 3.0 | 0.01 | 0.52 | 0.52 | 94 | 1010.7 |
| 20260502201341 | 53 | 248 | 1.0 | 3.0 | 0.01 | 0.52 | 0.52 | 94 | 1010.7 |
| 20260502201104 | 53 | 37 | 2.0 | 3.0 | 0.01 | 0.52 | 0.52 | 94 | 1010.7 |
| 20260502200946 | 53 | 37 | 2.0 | 3.0 | 0.01 | 0.52 | 0.52 | 94 | 1010.7 |
| 20260502200341 | 53 | 52 | 2.0 | 3.0 | 0.01 | 0.52 | 0.52 | 95 | 1010.8 |
| 20260502200110 | 53 | 34 | 2.0 | 3.0 | 0.02 | 0.52 | 0.52 | 95 | 1010.9 |
| 20260502195842 | 53 | 63 | 2.0 | 3.0 | 0.01 | 0.52 | 0.52 | 95 | 1010.8 |
| 20260502195445 | 53 | 34 | 2.0 | 3.0 | 0.02 | 0.52 | 0.52 | 95 | 1010.9 |
| 20260502194841 | 53 | 52 | 2.0 | 4.0 | 0.02 | 0.52 | 0.52 | 95 | 1010.9 |
| 20260502194342 | 53 | 54 | 2.0 | 4.0 | 0.02 | 0.52 | 0.52 | 95 | 1010.9 |
| 20260502193829 | 53 | 3 | 2.0 | 4.0 | 0.02 | 0.51 | 0.51 | 95 | 1010.9 |
| 20260502193330 | 53 | 340 | 2.0 | 4.0 | 0.02 | 0.51 | 0.51 | 96 | 1011.0 |
| 20260502192829 | 53 | 269 | 2.0 | 4.0 | 0.02 | 0.51 | 0.51 | 96 | 1011.1 |
| 20260502192313 | 53 | 356 | 2.0 | 4.0 | 0.02 | 0.51 | 0.51 | 96 | 1011.2 |
| 20260502192041 | 53 | 20 | 2.0 | 3.0 | 0.02 | 0.51 | 0.51 | 96 | 1011.3 |
| 20260502191812 | 53 | 20 | 2.0 | 3.0 | 0.02 | 0.51 | 0.51 | 96 | 1011.3 |
| 20260502191322 | 53 | 18 | 2.0 | 3.0 | 0.02 | 0.50 | 0.50 | 96 | 1011.2 |
| 20260502191313 | 53 | 84 | 2.0 | 3.0 | 0.02 | 0.50 | 0.50 | 96 | 1011.3 |
| 20260502190813 | 53 | 18 | 2.0 | 3.0 | 0.02 | 0.50 | 0.50 | 96 | 1011.2 |
| 20260502190313 | 53 | 253 | 1.0 | 2.0 | 0.02 | 0.50 | 0.50 | 96 | 1011.3 |
| 20260502190037 | 53 | 242 | 1.0 | 2.0 | 0.02 | 0.50 | 0.50 | 96 | 1011.3 |
| 20260502185924 | 53 | 242 | 1.0 | 2.0 | 0.02 | 0.50 | 0.50 | 96 | 1011.3 |
| 20260502185257 | 53 | 82 | 2.0 | 2.0 | 0.02 | 0.50 | 0.50 | 96 | 1011.3 |
| 20260502184759 | 52 | 129 | 2.0 | 2.0 | 0.02 | 0.50 | 0.50 | 96 | 1011.2 |
| 20260502184242 | 52 | 62 | 2.0 | 2.0 | 0.03 | 0.50 | 0.50 | 96 | 1011.2 |
| 20260502183744 | 52 | 104 | 2.0 | 2.0 | 0.03 | 0.50 | 0.50 | 96 | 1011.3 |
| 20260502183243 | 52 | 74 | 2.0 | 2.0 | 0.02 | 0.50 | 0.49 | 96 | 1011.2 |
| 20260502182743 | 52 | 64 | 2.0 | 3.0 | 0.03 | 0.51 | 0.49 | 95 | 1011.3 |
| 20260502182244 | 52 | 80 | 2.0 | 4.0 | 0.03 | 0.51 | 0.49 | 96 | 1011.8 |
| 20260502181743 | 52 | 78 | 2.0 | 4.0 | 0.02 | 0.50 | 0.49 | 96 | 1011.7 |
| 20260502181243 | 52 | 48 | 2.0 | 10.0 | 0.02 | 0.50 | 0.48 | 96 | 1011.5 |
| 20260502180739 | 52 | 87 | 2.0 | 11.0 | 0.02 | 0.50 | 0.48 | 96 | 1011.5 |
| 20260502180239 | 52 | 92 | 3.0 | 11.0 | 0.02 | 0.50 | 0.48 | 96 | 1011.4 |
| 20260502170203 | 52 | 343 | 2.0 | 6.0 | 0.07 | 0.48 | 0.46 | 97 | 1011.6 |
| 20260502164129 | 52 | 30 | 2.0 | 4.0 | 0.07 | 0.47 | 0.44 | 98 | 1012.4 |
| 20260502163615 | 52 | 63 | 2.0 | 4.0 | 0.07 | 0.46 | 0.44 | 98 | 1012.5 |
| 20260502163115 | 52 | 35 | 2.0 | 4.0 | 0.06 | 0.46 | 0.43 | 97 | 1012.5 |
| 20260502162614 | 52 | 61 | 2.0 | 4.0 | 0.06 | 0.45 | 0.43 | 97 | 1012.6 |
| 20260502162113 | 52 | 74 | 1.0 | 2.0 | 0.05 | 0.44 | 0.42 | 98 | 1012.8 |
| 20260502161616 | 52 | 4 | 1.0 | 2.0 | 0.05 | 0.43 | 0.41 | 98 | 1012.8 |
| 20260502161113 | 52 | 352 | 1.0 | 2.0 | 0.04 | 0.43 | 0.40 | 97 | 1012.7 |
| 20260502160617 | 52 | 0 | 1.0 | 2.0 | 0.04 | 0.42 | 0.39 | 98 | 1012.8 |
| 20260502160119 | 52 | 330 | 1.0 | 2.0 | 0.04 | 0.41 | 0.39 | 98 | 1012.8 |
| 20260502152207 | 52 | 331 | 1.0 | 2.0 | 0.09 | 0.39 | 0.37 | 98 | 1012.3 |
| 20260502151600 | 52 | 19 | 1.0 | 2.0 | 0.09 | 0.39 | 0.36 | 98 | 1012.4 |
| 20260502151046 | 52 | 343 | 1.0 | 2.0 | 0.09 | 0.38 | 0.35 | 98 | 1012.5 |
| 20260502150546 | 52 | 110 | 1.0 | 3.0 | 0.09 | 0.37 | 0.35 | 98 | 1012.6 |
| 20260502140121 | 53 | 119 | 2.0 | 4.0 | 0.03 | 0.28 | 0.25 | 98 | 1011.7 |
| 20260502130503 | 52 | 321 | 2.0 | 3.0 | 0.06 | 0.26 | 0.22 | 98 | 1011.3 |
| 20260502123455 | 52 | 318 | 3.0 | 6.0 | 0.07 | 0.24 | 0.20 | 97 | 1011.0 |
| 20260502122954 | 52 | 338 | 2.0 | 3.0 | 0.07 | 0.23 | 0.20 | 97 | 1011.0 |
| 20260502122450 | 52 | 327 | 3.0 | 7.0 | 0.08 | 0.22 | 0.19 | 97 | 1010.9 |
| 20260502121938 | 52 | 327 | 4.0 | 7.0 | 0.09 | 0.22 | 0.19 | 97 | 1010.9 |
| 20260502121436 | 52 | 344 | 3.0 | 5.0 | 0.09 | 0.21 | 0.18 | 97 | 1010.8 |
| 20260502121408 | 52 | 343 | 2.0 | 3.0 | 0.10 | 0.21 | 0.18 | 97 | 1010.8 |
| 20260502121027 | 52 | 343 | 2.0 | 3.0 | 0.10 | 0.21 | 0.18 | 97 | 1010.8 |
| 20260502120420 | 52 | 25 | 2.0 | 3.0 | 0.11 | 0.20 | 0.17 | 97 | 1010.7 |
| 20260502115922 | 52 | 0 | 2.0 | 3.0 | 0.11 | 0.20 | 0.17 | 97 | 1010.8 |
| 20260502115421 | 52 | 14 | 2.0 | 3.0 | 0.11 | 0.19 | 0.16 | 97 | 1010.8 |
| 20260502114919 | 52 | 14 | 2.0 | 3.0 | 0.12 | 0.19 | 0.16 | 97 | 1010.8 |
| 20260502114637 | 52 | 1 | 3.0 | 7.0 | 0.12 | 0.18 | 0.15 | 97 | 1010.8 |
| 20260502114521 | 52 | 1 | 3.0 | 7.0 | 0.12 | 0.18 | 0.15 | 97 | 1010.8 |
| 20260502113909 | 52 | 8 | 3.0 | 7.0 | 0.11 | 0.17 | 0.14 | 97 | 1010.9 |
| 20260502113624 | 52 | 351 | 2.0 | 5.0 | 0.11 | 0.17 | 0.13 | 97 | 1011.0 |
| 20260502113512 | 52 | 351 | 2.0 | 5.0 | 0.11 | 0.17 | 0.13 | 97 | 1011.0 |
| 20260502112905 | 52 | 316 | 2.0 | 4.0 | 0.11 | 0.15 | 0.12 | 97 | 1011.1 |
| 20260502112405 | 52 | 354 | 2.0 | 4.0 | 0.09 | 0.14 | 0.11 | 97 | 1011.2 |
| 20260502112109 | 52 | 264 | 2.0 | 4.0 | 0.09 | 0.13 | 0.09 | 97 | 1011.1 |
| 20260502111956 | 52 | 264 | 2.0 | 4.0 | 0.09 | 0.13 | 0.09 | 97 | 1011.1 |
| 20260502111352 | 53 | 320 | 3.0 | 4.0 | 0.08 | 0.11 | 0.08 | 97 | 1011.1 |
| 20260502111106 | 53 | 294 | 3.0 | 4.0 | 0.07 | 0.10 | 0.07 | 97 | 1011.0 |
| 20260502110954 | 53 | 294 | 3.0 | 4.0 | 0.07 | 0.10 | 0.07 | 97 | 1011.0 |
| 20260502110351 | 53 | 288 | 3.0 | 5.0 | 0.06 | 0.09 | 0.06 | 96 | 1011.0 |
| 20260502105850 | 53 | 292 | 3.0 | 5.0 | 0.06 | 0.09 | 0.06 | 96 | 1011.0 |
| 20260502105350 | 53 | 292 | 3.0 | 4.0 | 0.05 | 0.08 | 0.05 | 96 | 1011.0 |
| 20260502104850 | 53 | 284 | 3.0 | 4.0 | 0.04 | 0.07 | 0.04 | 96 | 1011.0 |
| 20260502104350 | 53 | 310 | 2.0 | 3.0 | 0.03 | 0.06 | 0.03 | 96 | 1011.0 |
| 20260502103850 | 53 | 326 | 1.0 | 2.0 | 0.03 | 0.06 | 0.03 | 95 | 1010.9 |
| 20260502103350 | 53 | 324 | 1.0 | 2.0 | 0.02 | 0.05 | 0.02 | 95 | 1010.9 |
| 20260502102850 | 53 | 319 | 1.0 | 2.0 | 0.02 | 0.05 | 0.02 | 95 | 1010.9 |
| 20260502102350 | 53 | 319 | 1.0 | 2.0 | 0.01 | 0.04 | 0.01 | 94 | 1010.9 |
| 20260502102336 | 53 | 331 | 1.0 | 2.0 | 0.01 | 0.04 | 0.01 | 94 | 1010.9 |
| 20260502101955 | 53 | 331 | 1.0 | 2.0 | 0.01 | 0.04 | 0.01 | 94 | 1010.9 |
| 20260502101554 | 53 | 308 | 1.0 | 2.0 | 0.00 | 0.04 | 0.00 | 94 | 1011.0 |
| 20260502101440 | 53 | 308 | 1.0 | 2.0 | 0.00 | 0.04 | 0.00 | 94 | 1011.0 |
| 20260502100836 | 53 | 299 | 1.0 | 2.0 | 0.00 | 0.04 | 0.00 | 94 | 1010.9 |
| 20260502100335 | 53 | 276 | 1.0 | 2.0 | 0.00 | 0.04 | 0.00 | 94 | 1010.9 |
| 20260502091322 | 53 | 321 | 1.0 | 2.0 | 0.00 | 0.03 | 0.00 | 97 | 1010.9 |
| 20260502090823 | 53 | 333 | 1.0 | 2.0 | 0.00 | 0.03 | 0.00 | 97 | 1010.9 |
| 20260502090307 | 53 | 274 | 1.0 | 2.0 | 0.00 | 0.03 | 0.00 | 97 | 1010.9 |
| 20260502071220 | 52 | 322 | 1.0 | 2.0 | 0.00 | 0.03 | 0.00 | 98 | 1010.4 |
| 20260502070722 | 52 | 326 | 1.0 | 2.0 | 0.00 | 0.03 | 0.00 | 98 | 1010.5 |
| 20260502070222 | 51 | 330 | 1.0 | 2.0 | 0.00 | 0.03 | 0.00 | 98 | 1010.6 |
| 20260502065722 | 51 | 322 | 1.0 | 1.0 | 0.00 | 0.03 | 0.00 | 98 | 1010.7 |
| 20260502065222 | 51 | 327 | 1.0 | 2.0 | 0.00 | 0.03 | 0.00 | 98 | 1010.7 |
| 20260502064722 | 51 | 174 | 1.0 | 2.0 | 0.00 | 0.03 | 0.00 | 98 | 1010.8 |
| 20260502064222 | 51 | 329 | 1.0 | 1.0 | 0.00 | 0.03 | 0.00 | 98 | 1010.7 |
| 20260502063723 | 51 | 321 | 0.0 | 1.0 | 0.00 | 0.03 | 0.00 | 98 | 1010.7 |
| 20260502063222 | 51 | 304 | 1.0 | 2.0 | 0.00 | 0.03 | 0.00 | 98 | 1010.7 |
| 20260502062723 | 51 | 330 | 1.0 | 2.0 | 0.00 | 0.03 | 0.00 | 98 | 1010.8 |
| 20260502062210 | 51 | 318 | 1.0 | 2.0 | 0.00 | 0.03 | 0.00 | 98 | 1010.9 |
| 20260502061720 | 51 | 0 | 0.0 | 2.0 | 0.00 | 0.03 | 0.00 | 98 | 1010.9 |
| 20260502061709 | 51 | 281 | 1.0 | 1.0 | 0.00 | 0.03 | 0.00 | 98 | 1010.9 |
| 20260502061314 | 51 | 0 | 0.0 | 2.0 | 0.00 | 0.03 | 0.00 | 98 | 1010.9 |
| 20260502060706 | 51 | 306 | 1.0 | 2.0 | 0.00 | 0.03 | 0.00 | 98 | 1010.9 |
| 20260502060421 | 51 | 314 | 1.0 | 2.0 | 0.00 | 0.03 | 0.00 | 98 | 1011.0 |
| 20260502060300 | 51 | 314 | 1.0 | 2.0 | 0.00 | 0.03 | 0.00 | 98 | 1011.0 |
| 20260502055654 | 51 | 278 | 1.0 | 2.0 | 0.00 | 0.03 | 0.00 | 98 | 1011.0 |
| 20260502055152 | 51 | 329 | 1.0 | 2.0 | 0.00 | 0.03 | 0.00 | 97 | 1011.1 |
| 20260502054648 | 51 | 316 | 1.0 | 2.0 | 0.00 | 0.03 | 0.00 | 97 | 1011.2 |
| 20260502054149 | 51 | 325 | 1.0 | 2.0 | 0.00 | 0.03 | 0.00 | 97 | 1011.1 |
| 20260502053650 | 51 | 339 | 1.0 | 2.0 | 0.00 | 0.03 | 0.00 | 97 | 1011.2 |
| 20260502053150 | 51 | 332 | 1.0 | 2.0 | 0.00 | 0.03 | 0.00 | 97 | 1011.2 |
| 20260502052649 | 51 | 306 | 1.0 | 2.0 | 0.00 | 0.03 | 0.00 | 97 | 1011.2 |
| 20260502052148 | 51 | 344 | 1.0 | 2.0 | 0.00 | 0.03 | 0.00 | 97 | 1011.3 |
| 20260502051651 | 51 | 337 | 1.0 | 2.0 | 0.00 | 0.03 | 0.00 | 97 | 1011.4 |
| 20260502051415 | 51 | 345 | 1.0 | 2.0 | 0.00 | 0.03 | 0.00 | 97 | 1011.4 |
| 20260502051255 | 51 | 345 | 1.0 | 2.0 | 0.00 | 0.03 | 0.00 | 97 | 1011.4 |
| 20260502050650 | 51 | 313 | 1.0 | 2.0 | 0.00 | 0.03 | 0.00 | 97 | 1011.4 |
| 20260502050150 | 51 | 315 | 1.0 | 2.0 | 0.00 | 0.03 | 0.00 | 97 | 1011.4 |
| 20260502045649 | 51 | 333 | 1.0 | 2.0 | 0.00 | 0.03 | 0.00 | 97 | 1011.5 |
| 20260502045147 | 51 | 336 | 1.0 | 2.0 | 0.00 | 0.03 | 0.00 | 97 | 1011.6 |
| 20260502044644 | 51 | 338 | 1.0 | 2.0 | 0.00 | 0.03 | 0.00 | 97 | 1011.6 |
| 20260502044144 | 51 | 281 | 0.0 | 2.0 | 0.00 | 0.03 | 0.00 | 97 | 1011.6 |
| 20260502043645 | 51 | 0 | 1.0 | 2.0 | 0.00 | 0.03 | 0.00 | 97 | 1011.7 |
| 20260502043142 | 51 | 318 | 1.0 | 2.0 | 0.00 | 0.03 | 0.00 | 97 | 1011.8 |
| 20260502042642 | 50 | 317 | 1.0 | 2.0 | 0.00 | 0.03 | 0.00 | 97 | 1011.8 |
| 20260502042143 | 50 | 322 | 1.0 | 2.0 | 0.00 | 0.03 | 0.00 | 97 | 1011.8 |
| 20260502041911 | 50 | 329 | 1.0 | 2.0 | 0.00 | 0.03 | 0.00 | 97 | 1011.7 |
| 20260502041643 | 50 | 329 | 1.0 | 2.0 | 0.00 | 0.03 | 0.00 | 97 | 1011.7 |
| 20260502041142 | 50 | 322 | 1.0 | 2.0 | 0.00 | 0.03 | 0.00 | 97 | 1011.6 |
| 20260502040643 | 50 | 358 | 1.0 | 2.0 | 0.00 | 0.03 | 0.00 | 97 | 1011.6 |
| 20260502040139 | 50 | 313 | 1.0 | 2.0 | 0.00 | 0.03 | 0.00 | 97 | 1011.7 |
| 20260502035640 | 50 | 348 | 1.0 | 2.0 | 0.00 | 0.03 | 0.03 | 97 | 1011.7 |
| 20260502035140 | 50 | 331 | 1.0 | 2.0 | 0.00 | 0.03 | 0.03 | 97 | 1011.7 |
| 20260502034640 | 50 | 344 | 1.0 | 2.0 | 0.00 | 0.03 | 0.03 | 97 | 1011.7 |
| 20260502034405 | 50 | 0 | 1.0 | 2.0 | 0.00 | 0.03 | 0.03 | 97 | 1011.8 |
| 20260502034244 | 50 | 0 | 1.0 | 2.0 | 0.00 | 0.03 | 0.03 | 97 | 1011.8 |
| 20260502033636 | 50 | 310 | 1.0 | 2.0 | 0.00 | 0.03 | 0.03 | 97 | 1012.0 |
| 20260502033137 | 50 | 0 | 1.0 | 2.0 | 0.00 | 0.03 | 0.03 | 96 | 1011.9 |
| 20260502032856 | 50 | 333 | 1.0 | 2.0 | 0.00 | 0.03 | 0.03 | 96 | 1012.0 |
| 20260502032738 | 50 | 333 | 1.0 | 2.0 | 0.00 | 0.03 | 0.03 | 96 | 1012.0 |
| 20260502032134 | 50 | 273 | 1.0 | 2.0 | 0.00 | 0.03 | 0.03 | 96 | 1012.1 |
| 20260502031634 | 50 | 271 | 1.0 | 2.0 | 0.00 | 0.03 | 0.03 | 96 | 1012.2 |
| 20260502031134 | 50 | 354 | 1.0 | 3.0 | 0.00 | 0.03 | 0.03 | 96 | 1012.3 |
| 20260502031126 | 50 | 2 | 1.0 | 3.0 | 0.00 | 0.03 | 0.03 | 96 | 1012.2 |
| 20260502030739 | 50 | 2 | 1.0 | 3.0 | 0.00 | 0.03 | 0.03 | 96 | 1012.2 |
| 20260502030356 | 50 | 236 | 1.0 | 3.0 | 0.00 | 0.03 | 0.03 | 96 | 1012.3 |
| 20260502030239 | 50 | 236 | 1.0 | 3.0 | 0.00 | 0.03 | 0.03 | 96 | 1012.3 |
| 20260502025629 | 50 | 323 | 1.0 | 4.0 | 0.00 | 0.03 | 0.03 | 96 | 1012.2 |
| 20260502025127 | 50 | 0 | 1.0 | 4.0 | 0.00 | 0.03 | 0.03 | 96 | 1012.4 |
| 20260502024625 | 50 | 309 | 1.0 | 2.0 | 0.00 | 0.03 | 0.03 | 96 | 1012.4 |
| 20260502024126 | 50 | 272 | 1.0 | 8.0 | 0.00 | 0.03 | 0.03 | 95 | 1012.4 |
| 20260502023625 | 50 | 345 | 1.0 | 8.0 | 0.00 | 0.03 | 0.03 | 95 | 1012.4 |
| 20260502023127 | 50 | 355 | 1.0 | 3.0 | 0.00 | 0.03 | 0.03 | 95 | 1012.4 |
| 20260502022625 | 51 | 335 | 1.0 | 3.0 | 0.00 | 0.03 | 0.03 | 95 | 1012.3 |
| 20260502022351 | 51 | 305 | 1.0 | 2.0 | 0.00 | 0.03 | 0.03 | 95 | 1012.3 |
| 20260502022232 | 51 | 305 | 1.0 | 2.0 | 0.00 | 0.03 | 0.03 | 95 | 1012.3 |
| 20260502021626 | 51 | 288 | 1.0 | 2.0 | 0.00 | 0.03 | 0.03 | 95 | 1012.4 |
| 20260502021126 | 51 | 288 | 1.0 | 2.0 | 0.00 | 0.03 | 0.03 | 95 | 1012.4 |
| 20260502020623 | 51 | 328 | 1.0 | 2.0 | 0.00 | 0.03 | 0.03 | 95 | 1012.4 |
| 20260502020125 | 51 | 283 | 1.0 | 2.0 | 0.00 | 0.03 | 0.03 | 94 | 1012.3 |
| 20260502015625 | 51 | 310 | 1.0 | 2.0 | 0.00 | 0.03 | 0.03 | 94 | 1012.3 |
| 20260502015125 | 51 | 312 | 1.0 | 2.0 | 0.00 | 0.03 | 0.03 | 94 | 1012.2 |
| 20260502014623 | 51 | 339 | 1.0 | 2.0 | 0.00 | 0.03 | 0.03 | 94 | 1012.2 |
| 20260502014122 | 51 | 282 | 1.0 | 2.0 | 0.00 | 0.03 | 0.03 | 94 | 1012.3 |
| 20260502013617 | 51 | 309 | 1.0 | 2.0 | 0.00 | 0.03 | 0.03 | 94 | 1012.3 |
| 20260502013116 | 51 | 189 | 0.0 | 2.0 | 0.00 | 0.03 | 0.03 | 93 | 1012.4 |
| 20260502012612 | 51 | 314 | 1.0 | 2.0 | 0.00 | 0.03 | 0.03 | 92 | 1012.5 |
| 20260502012112 | 51 | 295 | 1.0 | 2.0 | 0.00 | 0.03 | 0.03 | 92 | 1012.3 |
| 20260502011612 | 52 | 124 | 1.0 | 2.0 | 0.00 | 0.03 | 0.03 | 92 | 1012.2 |
| 20260502011112 | 52 | 286 | 1.0 | 2.0 | 0.00 | 0.03 | 0.03 | 91 | 1012.1 |
| 20260502010612 | 52 | 280 | 1.0 | 2.0 | 0.00 | 0.03 | 0.03 | 90 | 1012.1 |
| 20260502010111 | 52 | 297 | 1.0 | 2.0 | 0.00 | 0.03 | 0.03 | 90 | 1012.2 |
| 20260502005610 | 53 | 282 | 1.0 | 2.0 | 0.00 | 0.03 | 0.03 | 89 | 1012.2 |
| 20260502005108 | 53 | 285 | 1.0 | 2.0 | 0.00 | 0.03 | 0.03 | 88 | 1012.1 |
| 20260502004609 | 53 | 299 | 1.0 | 2.0 | 0.00 | 0.03 | 0.03 | 88 | 1011.9 |
| 20260502004110 | 54 | 306 | 1.0 | 2.0 | 0.00 | 0.03 | 0.03 | 87 | 1011.8 |
| 20260502003610 | 54 | 305 | 1.0 | 2.0 | 0.00 | 0.03 | 0.03 | 86 | 1011.7 |
| 20260502003109 | 54 | 0 | 1.0 | 2.0 | 0.00 | 0.03 | 0.03 | 85 | 1011.6 |
| 20260502002609 | 54 | 136 | 1.0 | 2.0 | 0.00 | 0.03 | 0.03 | 84 | 1011.7 |
| 20260502002109 | 54 | 0 | 0.0 | 2.0 | 0.00 | 0.03 | 0.03 | 84 | 1011.6 |
| 20260502001609 | 55 | 333 | 0.0 | 2.0 | 0.00 | 0.03 | 0.03 | 84 | 1011.6 |
| 20260502001109 | 55 | 324 | 1.0 | 2.0 | 0.00 | 0.03 | 0.03 | 84 | 1011.7 |
| 20260502000610 | 55 | 0 | 1.0 | 2.0 | 0.00 | 0.03 | 0.03 | 83 | 1011.8 |
| 20260502000107 | 55 | 194 | 1.0 | 2.0 | 0.00 | 0.03 | 0.03 | 83 | 1011.7 |
| 20260501235607 | 55 | 221 | 1.0 | 2.0 | 0.00 | 0.03 | 0.03 | 82 | 1011.8 |
| 20260501235106 | 55 | 52 | 1.0 | 2.0 | 0.00 | 0.03 | 0.03 | 82 | 1011.9 |
| 20260501234607 | 55 | 43 | 2.0 | 3.0 | 0.00 | 0.03 | 0.03 | 82 | 1011.9 |
| 20260501234107 | 55 | 48 | 2.0 | 3.0 | 0.00 | 0.03 | 0.03 | 81 | 1011.8 |
| 20260501233606 | 55 | 48 | 2.0 | 3.0 | 0.00 | 0.03 | 0.03 | 80 | 1011.8 |